Location: Góry Miechowskie
(50.3599°N, 20.1803°E)
Time: 07:02:24
(UTC+00:00)

Cosmos 1461 - Pass Details

Date: 22 September 2024
Orbit: 489 x 565 km, 65.0° (Epoch: 12 October)

Event Time Altitude Azimuth Distance (km) Brightness Sun altitude
Rises 03:21:59 0° 324° (NW) 2,589 6.0 -10.9°
Reaches altitude 10° 03:24:30 10° 340° (NNW) 1,713 5.3 -10.6°
Maximum altitude 03:27:32 22° 33° (NNE) 1,149 5.0 -10.1°
Drops below altitude 10° 03:30:37 10° 85° (E) 1,738 7.0 -9.6°
Sets 03:33:11 0° 101° (ESE) 2,638 7.7 -9.2°
